• In Belarus
  • List of Countries
  • For 7 days
  • Water Temperature
  • Satellite Maps
  • Weather Map
  • Weather Widgets
  • user-avatar
    Login

    Hourly Weather Ashtarak

    Today, 23 October, Tuesday

    Time Temperature Precipitation Wind Pressure Humidity
    00:00 +12°C° 0.1 mm 1 mps 659 mmHg 68%
    01:00 +12°C° 0 mm 1 mps 659 mmHg 69%
    02:00 +11°C° 0 mm 1 mps 659 mmHg 70%
    03:00 +11°C° 0 mm 1 mps 658 mmHg 73%
    04:00 +11°C° 0 mm 1 mps 658 mmHg 74%
    05:00 +11°C° 0 mm 1 mps 658 mmHg 75%
    06:00 +11°C° 0 mm 1 mps 658 mmHg 76%
    07:00 +12°C° 0 mm 2 mps 659 mmHg 70%
    08:00 +14°C° 0 mm 2 mps 659 mmHg 65%
    09:00 +15°C° 0 mm 2 mps 660 mmHg 59%
    10:00 +16°C° 0 mm 2 mps 659 mmHg 55%
    11:00 +17°C° 0 mm 3 mps 659 mmHg 51%
    12:00 +17°C° 0 mm 3 mps 659 mmHg 47%
    13:00 +18°C° 0.1 mm 3 mps 659 mmHg 47%
    14:00 +18°C° 0.1 mm 3 mps 659 mmHg 47%
    15:00 +18°C° 0.1 mm 3 mps 658 mmHg 46%
    16:00 +16°C° 0.1 mm 3 mps 658 mmHg 51%
    17:00 +15°C° 0.1 mm 2 mps 658 mmHg 55%
    18:00 +14°C° 0.1 mm 2 mps 657 mmHg 60%
    19:00 +13°C° 0 mm 2 mps 657 mmHg 61%
    20:00 +13°C° 0 mm 2 mps 657 mmHg 62%
    21:00 +12°C° 0 mm 2 mps 658 mmHg 64%
    22:00 +12°C° 0 mm 2 mps 657 mmHg 64%
    23:00 +12°C° 0 mm 2 mps 657 mmHg 65%

    Tomorrow, 24 October, Wednesday

    Time Temperature Precipitation Wind Pressure Humidity
    00:00 +12°C° 0 mm 2 mps 657 mmHg 66%
    01:00 +10°C° 0 mm 2 mps 657 mmHg 67%
    02:00 +10°C° 0 mm 2 mps 657 mmHg 68%
    03:00 +10°C° 0 mm 2 mps 657 mmHg 68%
    04:00 +10°C° 0 mm 2 mps 656 mmHg 69%
    05:00 +9°C° 0 mm 2 mps 656 mmHg 70%
    06:00 +9°C° 0 mm 2 mps 656 mmHg 71%
    07:00 +12°C° 0.3 mm 2 mps 656 mmHg 68%
    08:00 +12°C° 0.3 mm 3 mps 656 mmHg 65%
    09:00 +13°C° 0.3 mm 3 mps 656 mmHg 62%
    10:00 +14°C° 0.7 mm 4 mps 656 mmHg 60%
    11:00 +15°C° 0.7 mm 4 mps 656 mmHg 58%
    12:00 +17°C° 0.7 mm 4 mps 655 mmHg 55%
    13:00 +17°C° 0.3 mm 4 mps 655 mmHg 54%
    14:00 +18°C° 0.3 mm 4 mps 654 mmHg 52%
    15:00 +17°C° 0.3 mm 5 mps 654 mmHg 50%
    16:00 +17°C° 0.3 mm 4 mps 653 mmHg 54%
    17:00 +16°C° 0.3 mm 3 mps 653 mmHg 58%
    18:00 +13°C° 0.3 mm 3 mps 653 mmHg 62%
    19:00 +13°C° 0.3 mm 3 mps 653 mmHg 64%
    20:00 +13°C° 0.3 mm 3 mps 653 mmHg 66%
    21:00 +13°C° 0.3 mm 4 mps 653 mmHg 68%
    22:00 +13°C° 0.3 mm 4 mps 653 mmHg 70%
    23:00 +12°C° 0.3 mm 4 mps 652 mmHg 72%

    Day after tomorrow, 25 October, Thursday

    Time Temperature Precipitation Wind Pressure Humidity
    00:00 +12°C° 0.3 mm 4 mps 652 mmHg 74%
    01:00 +12°C° 0.2 mm 4 mps 652 mmHg 76%
    02:00 +11°C° 0.2 mm 4 mps 652 mmHg 77%
    03:00 +11°C° 0.2 mm 4 mps 651 mmHg 78%
    04:00 +11°C° 0.3 mm 4 mps 651 mmHg 78%
    05:00 +11°C° 0.3 mm 4 mps 651 mmHg 78%
    06:00 +11°C° 0.3 mm 4 mps 650 mmHg 78%
    07:00 +12°C° 0.2 mm 5 mps 650 mmHg 72%
    08:00 +14°C° 0.2 mm 5 mps 650 mmHg 66%
    09:00 +15°C° 0.2 mm 6 mps 650 mmHg 60%
    10:00 +16°C° 0.1 mm 7 mps 650 mmHg 55%
    11:00 +18°C° 0.1 mm 8 mps 649 mmHg 50%
    12:00 +20°C° 0.1 mm 8 mps 649 mmHg 45%
    13:00 +19°C° 0.8 mm 9 mps 648 mmHg 48%
    14:00 +18°C° 0.8 mm 9 mps 648 mmHg 50%
    15:00 +18°C° 0.8 mm 10 mps 647 mmHg 52%
    16:00 +17°C° 0.9 mm 8 mps 647 mmHg 54%
    17:00 +16°C° 0.9 mm 6 mps 647 mmHg 56%
    18:00 +15°C° 0.9 mm 5 mps 647 mmHg 59%
    19:00 +15°C° 0.6 mm 5 mps 648 mmHg 59%
    20:00 +14°C° 0.6 mm 4 mps 648 mmHg 60%
    21:00 +14°C° 0.6 mm 4 mps 648 mmHg 61%
    22:00 +13°C° 0.8 mm 4 mps 648 mmHg 61%
    23:00 +13°C° 0.8 mm 4 mps 648 mmHg 62%

    26 October, Friday

    Time Temperature Precipitation Wind Pressure Humidity
    00:00 +13°C° 0.8 mm 4 mps 649 mmHg 63%
    01:00 +13°C° 0.7 mm 4 mps 649 mmHg 66%
    02:00 +12°C° 0.7 mm 4 mps 649 mmHg 69%
    03:00 +12°C° 0.7 mm 4 mps 649 mmHg 73%
    04:00 +11°C° 0.8 mm 4 mps 649 mmHg 75%
    05:00 +10°C° 0.8 mm 3 mps 649 mmHg 77%
    06:00 +10°C° 0.8 mm 3 mps 649 mmHg 79%
    07:00 +9°C° 3 mm 3 mps 649 mmHg 80%
    08:00 +7°C° 3 mm 4 mps 649 mmHg 81%
    09:00 +6°C° 3 mm 4 mps 650 mmHg 83%
    10:00 +6°C° 2.4 mm 4 mps 650 mmHg 82%
    11:00 +7°C° 2.4 mm 3 mps 650 mmHg 81%
    12:00 +7°C° 2.4 mm 2 mps 650 mmHg 81%
    13:00 +7°C° 0.8 mm 2 mps 651 mmHg 80%
    14:00 +7°C° 0.8 mm 2 mps 651 mmHg 78%
    15:00 +7°C° 0.8 mm 2 mps 652 mmHg 77%
    16:00 +7°C° 0.4 mm 2 mps 653 mmHg 77%
    17:00 +7°C° 0.4 mm 3 mps 653 mmHg 77%
    18:00 +5°C° 0.4 mm 3 mps 654 mmHg 77%
    19:00 +5°C° 0 mm 3 mps 655 mmHg 76%
    20:00 +5°C° 0 mm 2 mps 656 mmHg 76%
    21:00 +4°C° 0 mm 2 mps 656 mmHg 76%
    22:00 +4°C° 0 mm 2 mps 657 mmHg 75%
    23:00 +3°C° 0 mm 2 mps 657 mmHg 75%

    27 October, Saturday

    Time Temperature Precipitation Wind Pressure Humidity
    00:00 +3°C° 0 mm 2 mps 658 mmHg 74%
    01:00 +2°C° 0 mm 2 mps 658 mmHg 73%
    02:00 +2°C° 0 mm 2 mps 658 mmHg 72%
    03:00 +2°C° 0 mm 2 mps 659 mmHg 71%
    04:00 +2°C° 0 mm 2 mps 659 mmHg 70%
    05:00 +2°C° 0 mm 2 mps 660 mmHg 69%
    06:00 +2°C° 0 mm 2 mps 660 mmHg 68%
    07:00 +4°C° 0 mm 1 mps 660 mmHg 66%
    08:00 +6°C° 0 mm 1 mps 661 mmHg 64%
    09:00 +7°C° 0 mm 1 mps 661 mmHg 63%
    10:00 +8°C° 0 mm 1 mps 661 mmHg 62%
    11:00 +9°C° 0 mm 1 mps 661 mmHg 62%
    12:00 +10°C° 0 mm 1 mps 661 mmHg 61%
    13:00 +10°C° 0 mm 1 mps 661 mmHg 60%
    14:00 +10°C° 0 mm 1 mps 661 mmHg 58%
    15:00 +11°C° 0 mm 1 mps 661 mmHg 56%
    16:00 +9°C° 0 mm 1 mps 661 mmHg 57%
    17:00 +8°C° 0 mm 1 mps 662 mmHg 57%
    18:00 +7°C° 0 mm 1 mps 662 mmHg 57%
    19:00 +6°C° 0 mm 1 mps 662 mmHg 57%
    20:00 +6°C° 0 mm 1 mps 662 mmHg 57%
    21:00 +6°C° 0 mm 1 mps 663 mmHg 57%
    22:00 +6°C° 0 mm 1 mps 663 mmHg 57%
    23:00 +5°C° 0 mm 1 mps 663 mmHg 57%

    28 October, Sunday

    Time Temperature Precipitation Wind Pressure Humidity
    00:00 +5°C° 0 mm 1 mps 663 mmHg 57%
    01:00 +5°C° 0 mm 1 mps 663 mmHg 57%
    02:00 +5°C° 0 mm 1 mps 663 mmHg 56%
    03:00 +5°C° 0 mm 1 mps 663 mmHg 55%
    04:00 +5°C° 0 mm 1 mps 663 mmHg 54%
    05:00 +5°C° 0 mm 1 mps 663 mmHg 53%
    06:00 +4°C° 0 mm 1 mps 663 mmHg 52%
    07:00 +6°C° 0 mm 1 mps 663 mmHg 52%
    08:00 +8°C° 0 mm 1 mps 664 mmHg 51%
    09:00 +9°C° 0 mm 1 mps 664 mmHg 50%
    10:00 +10°C° 0 mm 1 mps 664 mmHg 51%
    11:00 +11°C° 0 mm 1 mps 664 mmHg 52%
    12:00 +12°C° 0 mm 1 mps 664 mmHg 53%
    13:00 +13°C° 0 mm 1 mps 664 mmHg 50%
    14:00 +13°C° 0 mm 1 mps 664 mmHg 48%
    15:00 +13°C° 0 mm 1 mps 663 mmHg 45%
    16:00 +12°C° 0 mm 1 mps 663 mmHg 45%
    17:00 +10°C° 0 mm 1 mps 663 mmHg 45%
    18:00 +9°C° 0 mm 1 mps 663 mmHg 46%
    19:00 +9°C° 0 mm 1 mps 663 mmHg 45%
    20:00 +8°C° 0 mm 1 mps 663 mmHg 44%
    21:00 +8°C° 0 mm 1 mps 663 mmHg 43%
    22:00 +8°C° 0 mm 1 mps 663 mmHg 43%
    23:00 +8°C° 0 mm 1 mps 663 mmHg 42%

    29 October, Monday

    Time Temperature Precipitation Wind Pressure Humidity
    00:00 +7°C° 0 mm 1 mps 663 mmHg 41%
    01:00 +7°C° 0 mm 1 mps 663 mmHg 41%
    02:00 +7°C° 0 mm 1 mps 663 mmHg 40%
    03:00 +7°C° 0 mm 1 mps 662 mmHg 39%
    04:00 +7°C° 0 mm 1 mps 662 mmHg 38%
    05:00 +7°C° 0 mm 1 mps 662 mmHg 38%
    06:00 +7°C° 0 mm 1 mps 662 mmHg 37%
    07:00 +8°C° 0 mm 1 mps 663 mmHg 38%
    08:00 +10°C° 0 mm 1 mps 663 mmHg 39%
    09:00 +12°C° 0 mm 1 mps 664 mmHg 40%
    10:00 +13°C° 0 mm 1 mps 664 mmHg 41%
    11:00 +14°C° 0 mm 1 mps 663 mmHg 43%
    12:00 +15°C° 0 mm 2 mps 663 mmHg 44%
    13:00 +15°C° 0 mm 2 mps 663 mmHg 42%
    14:00 +15°C° 0 mm 1 mps 663 mmHg 40%
    15:00 +16°C° 0 mm 1 mps 663 mmHg 38%
    16:00 +14°C° 0 mm 1 mps 662 mmHg 38%
    17:00 +12°C° 0 mm 1 mps 662 mmHg 39%
    18:00 +11°C° 0 mm 1 mps 662 mmHg 39%
    19:00 +10°C° 0 mm 1 mps 662 mmHg 39%
    20:00 +10°C° 0 mm 1 mps 662 mmHg 38%
    21:00 +10°C° 0 mm 1 mps 662 mmHg 38%
    22:00 +9°C° 0 mm 1 mps 662 mmHg 37%
    23:00 +9°C° 0 mm 1 mps 662 mmHg 37%
    Show more